Weather History for Cahokia, IL

Change the Weather History Date:

Wednesday, January 9, 2013

  Actual Average Record
Temperature  
Mean Temperature 45 °F -  
Max Temperature 57 °F 42 °F 66 °F (1963)
Min Temperature 33 °F 19 °F -3 °F (1962)
Degree Days  
Heating Degree Days 20    
Moisture  
Dew Point 36 °F    
Average Humidity 74    
Maximum Humidity 100    
Minimum Humidity 42    
Precipitation  
Precipitation 0.00 in - - ()
Sea Level Pressure  
Sea Level Pressure 30.37 in    
Wind  
Wind Speed 4 mph (NE)    
Max Wind Speed 9 mph    
Max Gust Speed -    
Visibility 9 miles    
Events Fog    
Averages and records for this station are not official NWS values.
T = Trace of Precipitation, MM = Missing Value Source: NWS Daily Summary

Daily Weather History Graph

Daily Weather History Graph

Search for Another Location

Airport:

Trip Planner

Search our weather history database for the weather conditions in past years. The results will help you decide how hot, cold, wet, or windy it might be!

Date:

Astronomy

Jan. 09, 2013 Rise Set
Actual Time 7:18 AM CST 4:57 PM CST
Civil Twilight 6:48 AM CST 5:27 PM CST
Nautical Twilight 6:16 AM CST 6:00 PM CST
Astronomical Twilight 5:44 AM CST 6:32 PM CST
Moon 4:57 AM CST (1/9) 2:59 PM CST (1/9)
Length of Visible Light 10h 38m
Length of Day
9h 39m
Waning Crescent, 6% of the Moon is Illuminated
Jan 9
Waning Crescent
Jan 11
New
Jan 18
First Quarter
Jan 26
Full
Feb 3
Last Quarter

Hourly Weather History & Observations

Time (CST) Temp. Windchill Dew Point Humidity Pressure Visibility Wind Dir Wind Speed Gust Speed Precip Events Conditions
12:53 AM 50.0 °F - 37.9 °F 63% 30.20 in 10.0 mi SSW 5.8 mph - N/A   Overcast
1:53 AM 48.9 °F - 39.9 °F 71% 30.23 in 10.0 mi SSW 9.2 mph - 0.00 in   Overcast
2:53 AM 46.9 °F - 42.1 °F 83% 30.25 in 10.0 mi SW 5.8 mph - 0.00 in   Overcast
3:53 AM 48.0 °F - 44.1 °F 86% 30.25 in 10.0 mi SSW 4.6 mph - 0.00 in   Overcast
4:53 AM 46.9 °F - 44.1 °F 90% 30.27 in 10.0 mi SW 3.5 mph - N/A   Overcast
5:53 AM 44.1 °F 42.5 °F 43.0 °F 96% 30.29 in 9.0 mi WSW 3.5 mph - N/A   Clear
6:03 AM 41.0 °F - 39.2 °F 93% 30.29 in 1.8 mi Calm Calm - N/A   Clear
6:12 AM 39.2 °F - 39.2 °F 100% 30.29 in 10.0 mi Calm Calm - N/A   Clear
6:53 AM 36.0 °F 33.3 °F 35.1 °F 97% 30.33 in 10.0 mi NW 3.5 mph - N/A Fog Shallow Fog
7:21 AM 33.8 °F - 32.0 °F 93% 30.35 in 0.2 mi Calm Calm - N/A Fog Shallow Fog
7:49 AM 34.0 °F - 33.1 °F 96% 30.36 in 1.2 mi Calm Calm - N/A Fog Shallow Fog
8:13 AM 35.6 °F - 35.6 °F 100% 30.36 in 10.0 mi Calm Calm - N/A Fog Shallow Fog
8:53 AM 42.1 °F - 39.9 °F 92% 30.38 in 10.0 mi Calm Calm - N/A   Clear
9:53 AM 48.0 °F - 39.9 °F 74% 30.40 in 10.0 mi SSW 3.5 mph - N/A   Clear
10:53 AM 51.1 °F - 39.9 °F 66% 30.41 in 10.0 mi West 3.5 mph - N/A   Clear
11:53 AM 54.0 °F - 37.9 °F 55% 30.40 in 10.0 mi Variable 3.5 mph - N/A   Clear
12:53 PM 55.0 °F - 36.0 °F 49% 30.38 in 10.0 mi NNW 3.5 mph - N/A   Clear
1:53 PM 57.0 °F - 34.0 °F 42% 30.40 in 10.0 mi Variable 3.5 mph - N/A   Clear
2:53 PM 57.0 °F - 34.0 °F 42% 30.40 in 10.0 mi NNE 4.6 mph - N/A   Clear
3:53 PM 54.0 °F - 35.1 °F 49% 30.42 in 10.0 mi ENE 3.5 mph - N/A   Clear
4:53 PM 48.0 °F - 36.0 °F 63% 30.42 in 10.0 mi NE 4.6 mph - N/A   Clear
5:53 PM 46.9 °F - 34.0 °F 61% 30.45 in 10.0 mi Calm Calm - N/A   Clear
6:53 PM 45.0 °F 43.5 °F 33.1 °F 63% 30.48 in 10.0 mi ENE 3.5 mph - N/A   Clear
7:53 PM 43.0 °F 39.5 °F 32.0 °F 65% 30.47 in 10.0 mi NE 5.8 mph - N/A   Clear
8:53 PM 42.1 °F 40.2 °F 30.9 °F 65% 30.48 in 10.0 mi ENE 3.5 mph - N/A   Clear
9:53 PM 39.0 °F 36.8 °F 30.9 °F 73% 30.48 in 10.0 mi NE 3.5 mph - N/A   Clear
10:53 PM 39.0 °F 35.7 °F 30.9 °F 73% 30.47 in 10.0 mi ENE 4.6 mph - N/A   Clear
11:53 PM 41.0 °F 38.0 °F 30.9 °F 67% 30.47 in 10.0 mi East 4.6 mph - N/A   Clear